Location: Arbon
(43.0005°N, 0.7472°E)
Time: 10:29:58
(UTC+00:00)

SR - Pass Details

Date: 29 November 2020
Orbit: 575 x 880 km, 66.7° (Epoch: 21 January)

Event Time Altitude Azimuth Distance (km) Brightness Sun altitude
Rises 19:32:13 0° 253° (WSW) 2,826 ? -33.8°
Reaches altitude 10° 19:34:58 10° 272° (W) 1,963 ? -34.3°
Enters shadow 19:37:18 18° 304° (NW) 1,542 ? -34.7°
Maximum altitude 19:38:07 19° 318° (NW) 1,518 - -34.9°
Drops below altitude 10° 19:41:25 10° 3° (N) 2,079 - -35.5°
Sets 19:44:28 0° 22° (NNE) 3,059 - -36.1°
